RH
73 73 66 54 45 43 44 43 38 38 39 39 40 41 38 37 38 40 49 78 75 67 62 62 62 62 61 60 59 58 58 59 59 59 60 59 57 57 56 55 54 53 53
70 64 64 54 47 44 40 38 39 38 36 37 40 40 39 40 38 42 46 56 78 74 68 62 62 62 60 58 56 55 55 56 57 58 59 59 58 56 55 53 51 50 49
65 63 57 49 46 45 46 41 40 35 33 32 38 38 38 41 40 41 44 49 58 80 77 71 66 63 61 59 57 55 53 54 55 57 58 59 57 56 55 52 50 47 46
60 61 52 50 46 51 42 38 36 34 34 34 37 36 36 38 42 43 41 45 48 46 72 78 74 71 65 61 60 57 55 53 53 55 58 58 58 57 56 55 52 49 47
60 52 48 47 58 51 46 40 40 37 37 36 34 34 35 36 42 38 41 45 50 45 48 74 80 79 75 69 64 62 58 56 53 52 56 57 57 57 57 56 55 51 49
57 52 47 59 55 46 44 40 46 40 39 36 26 31 36 35 37 40 42 40 42 46 45 56 61 59 82 75 69 65 63 61 58 54 54 56 57 57 57 57 56 52 51
51 53 45 52 51 43 44 51 47 52 45 42 40 44 45 48 45 37 37 38 42 44 49 44 55 52 59 79 75 67 65 65 65 62 57 56 59 59 58 59 58 55 54
53 52 54 56 54 48 57 60 60 56 53 54 49 52 60 55 51 47 42 42 48 38 40 44 48 50 54 59 66 76 69 66 61 62 63 58 60 61 61 62 61 58 57
62 48 52 59 65 64 64 68 66 64 74 64 67 75 80 72 71 50 55 48 52 48 42 42 46 49 52 55 69 72 81 81 74 62 63 68 64 62 63 63 64 63 61
74 51 57 66 73 65 73 67 64 66 76 84 65 58 66 68 78 81 57 56 51 49 55 48 44 53 48 52 60 69 83 87 83 75 65 63 63 64 64 65 65 66 69
81 65 67 78 81 73 83 79 77 70 75 81 83 76 59 62 66 73 55 58 54 49 47 54 53 56 63 66 62 64 80 89 86 81 74 66 61 60 60 62 64 67 72
92 80 71 75 82 83 83 77 72 77 79 76 75 72 68 67 62 65 66 63 72 62 50 55 72 72 83 67 61 69 84 84 86 83 79 73 68 64 60 59 59 58 60
89 88 77 74 73 74 73 72 74 76 79 82 70 62 59 59 60 62 71 68 71 70 72 74 81 86 82 71 61 69 84 88 88 85 83 78 72 69 66 64 62 61 60
76 79 82 75 70 72 68 71 71 72 78 76 72 68 56 60 62 64 65 69 84 81 81 78 75 73 71 72 60 80 65 83 86 84 80 80 80 78 76 73 71 70 68
58 69 74 75 73 71 68 68 76 73 73 74 76 72 66 64 66 64 65 73 82 87 76 69 74 68 62 57 67 60 60 80 82 84 82 82 80 77 76 74 73 72 71
66 71 72 69 68 67 65 64 63 64 74 78 70 71 70 66 66 70 72 79 77 86 90 65 70 71 61 51 65 64 59 73 79 79 80 80 81 80 79 79 77 76 74
64 63 66 63 60 60 60 62 61 61 64 67 67 65 66 64 70 72 84 84 87 91 98 94 91 87 76 67 60 62 64 60 60 79 83 81 81 80 81 81 80 77 74
60 58 58 60 58 57 59 62 63 58 62 60 59 62 63 64 73 78 90 95 94 97 97 96 96 94 87 73 70 73 57 49 51 74 84 77 75 75 74 77 76 79 80
58 58 56 59 58 59 58 59 58 58 57 57 59 62 62 67 81 94 96 97 95 97 97 97 95 90 90 82 77 70 71 69 52 74 77 74 73 71 69 73 76 75 74
58 58 59 58 58 55 53 52 52 57 59 58 62 66 66 82 94 95 98 98 97 98 98 97 95 91 86 80 78 72 70 65 57 34 38 39 53 62 67 66 69 71 73
56 56 58 60 60 58 54 58 57 62 66 67 79 88 90 92 98 95 95 96 97 96 97 95 98 93 90 85 81 69 67 60 53 39 32 33 33 37 41 64 62 70 76
57 57 58 58 61 54 70 82 78 76 85 86 86 79 86 99 99 100 100 100 95 96 97 96 93 93 88 78 73 65 55 54 48 35 39 38 36 38 37 37 53 62 59
62 63 60 59 60 60 82 91 94 75 81 81 85 95 99 99 100 99 98 96 97 96 96 92 93 93 89 72 62 60 60 58 45 38 38 48 45 46 40 27 58 63 64
65 66 66 64 63 60 92 99 99 78 78 92 98 98 99 99 98 96 92 90 91 92 90 74 86 86 85 59 49 50 51 44 44 39 40 55 47 50 44 38 56 60 63
66 68 67 68 69 70 100 100 99 99 99 99 97 96 95 95 95 91 91 97 98 98 96 94 87 76 70 65 59 43 53 51 66 41 41 46 45 49 49 48 42 56 61
68 80 93 97 100 99 100 100 99 98 98 98 98 98 97 95 99 92 91 91 92 80 64 64 59 49 47 56 53 44 38 49 48 49 42 46 42 42 48 46 50 52 53
Wind_Speed
7 10 10 10 11 11 11 11 9 9 9 9 8 9 8 7 11 9 8 10 12 13 14 14 14 14 13 12 11 11 11 11 10 10 9 9 8 7 7 7 6 6 7
7 10 10 11 11 11 11 10 9 9 9 9 9 9 8 8 10 11 10 9 10 12 13 13 14 14 14 13 11 10 11 11 11 10 10 9 8 7 7 6 4 4 4
9 12 12 11 10 11 12 9 10 9 9 9 10 8 7 8 8 11 11 10 10 7 11 15 14 14 14 13 12 11 11 11 11 11 10 11 10 9 7 6 4 3 2
10 9 8 7 8 7 9 9 10 9 8 8 8 8 8 8 8 8 10 10 10 10 8 9 14 15 15 14 13 13 12 11 11 12 12 11 11 10 9 8 7 5 4
10 9 9 8 6 6 7 8 8 8 8 7 8 8 7 7 8 8 8 8 11 11 10 15 13 12 15 16 16 15 14 13 12 12 12 13 12 12 12 10 9 7 6
15 11 10 8 7 8 8 9 10 9 8 8 9 8 6 5 7 6 9 8 9 9 8 13 12 11 12 15 16 17 17 16 15 14 14 14 14 14 13 12 11 9 9
12 10 10 10 10 10 10 8 8 10 8 7 6 6 6 7 8 9 8 8 10 11 9 9 10 9 12 21 20 21 20 20 20 19 17 16 16 16 15 14 13 13 12
11 9 9 10 12 9 9 9 9 8 7 7 7 8 6 6 8 9 8 8 9 8 10 11 10 10 7 11 15 22 22 21 19 19 20 19 19 19 18 18 17 16 16
8 13 11 10 9 7 7 10 9 11 7 6 8 4 3 5 5 9 10 7 9 7 8 9 9 9 10 6 8 16 20 16 17 18 17 20 21 22 21 21 20 20 20
6 10 12 10 10 8 7 9 9 10 8 7 6 7 8 5 3 3 6 9 8 9 9 8 8 9 11 8 11 9 15 19 16 16 17 17 17 21 23 23 23 22 21
6 6 10 10 9 7 4 8 10 10 8 5 5 4 7 7 7 6 8 7 7 9 9 8 8 5 2 4 7 10 13 13 15 17 16 18 19 19 19 18 21 23 25
7 9 12 11 8 6 6 8 9 12 9 8 7 7 7 6 7 7 8 9 8 8 8 7 8 8 5 7 11 13 12 15 12 11 13 15 17 19 20 21 22 22 22
11 13 13 13 11 11 12 12 10 10 9 5 11 10 9 8 8 7 8 9 8 5 6 6 7 7 7 9 10 14 13 11 11 13 13 12 14 15 15 16 18 19 21
16 17 14 14 15 14 15 12 10 11 9 11 16 12 8 8 7 8 9 9 6 7 7 12 8 11 9 9 10 11 8 12 11 10 9 9 9 11 10 10 11 13 15
16 20 20 18 16 16 17 16 10 10 11 12 11 12 11 9 9 9 9 7 9 8 8 7 7 10 10 7 8 8 8 11 9 7 8 8 8 7 8 8 8 10 12
19 19 21 21 19 18 18 18 15 14 12 10 11 15 13 11 12 10 9 7 8 10 7 6 8 3 7 7 7 6 7 11 11 9 9 9 7 6 8 8 9 10 12
20 20 22 22 22 22 21 19 18 16 17 16 18 17 16 15 11 10 8 8 8 7 8 3 2 4 7 8 8 7 7 7 7 14 12 11 7 6 7 8 9 10 12
18 18 18 20 21 22 21 21 20 18 20 20 19 17 17 12 14 11 8 10 9 8 8 10 5 5 5 9 7 9 9 7 8 9 11 9 7 7 9 11 10 10 11
19 18 18 19 20 20 21 21 21 20 19 18 18 17 16 15 13 9 10 9 9 7 9 7 7 5 2 6 5 2 4 7 7 12 13 12 10 10 10 10 10 12 12
19 19 19 20 19 19 20 19 19 19 18 18 18 17 16 14 13 12 12 13 10 9 7 8 6 6 5 5 4 6 6 6 7 9 5 6 6 10 12 13 14 14 14
19 20 20 20 20 20 16 20 20 19 17 17 11 9 10 12 16 18 11 12 12 11 8 10 5 5 6 7 9 5 5 5 3 4 7 7 6 7 7 14 16 16 14
19 19 20 20 19 15 17 16 14 12 11 12 13 14 13 13 15 15 16 11 14 13 13 10 8 8 8 8 7 6 5 4 5 5 6 6 6 7 7 7 6 2 7
18 20 19 19 20 19 16 18 18 14 14 15 13 10 8 5 7 7 10 14 13 12 4 6 5 3 3 4 5 5 3 3 6 6 6 7 6 8 7 9 5 5 7
19 18 18 18 17 15 13 15 17 16 17 9 7 8 7 6 5 9 10 11 11 11 11 9 7 8 7 4 2 2 1 3 5 6 7 8 6 7 7 8 9 10 11
15 15 14 15 15 12 10 14 12 6 6 6 6 6 7 8 12 17 13 12 9 8 15 18 16 14 12 12 7 1 3 4 5 7 6 7 6 8 7 7 10 9 4
13 6 7 6 8 5 5 9 11 7 8 7 8 9 11 12 14 13 12 9 10 8 4 7 6 6 5 4 2 2 2 4 5 5 3 3 6 7 6 4 5 5 7
Wind_Direction
151 158 164 148 153 148 165 174 172 154 158 152 149 167 159 132 128 131 144 144 140 149 150 147 146 149 148 143 142 140 141 141 144 135 134 122 119 112 107 98 86 81 75
157 161 163 160 168 152 166 184 152 158 166 158 163 165 151 146 144 143 141 156 157 161 157 162 162 163 162 158 159 160 159 161 161 162 160 156 155 151 144 135 120 107 89
172 169 173 169 173 154 168 169 165 165 168 168 165 160 152 157 145 145 153 158 166 176 179 175 174 177 178 176 177 177 175 177 178 177 178 180 179 178 177 171 167 164 151
171 174 163 173 166 144 170 165 175 170 167 176 163 168 170 167 162 173 173 158 169 181 196 202 188 185 189 194 193 194 190 192 194 193 193 197 196 196 198 202 203 202 214
172 183 154 166 160 147 172 168 172 169 169 185 171 177 179 177 178 186 189 198 177 183 179 187 199 196 197 203 205 206 205 203 205 207 207 210 209 210 213 216 220 222 228
178 171 163 142 159 167 178 178 177 179 172 190 182 174 181 190 193 205 202 197 204 208 218 168 192 204 203 209 216 214 213 209 214 216 217 219 221 221 222 224 229 233 237
182 180 167 162 177 190 180 175 172 175 177 182 170 175 190 211 211 207 207 207 213 205 212 226 180 205 195 206 212 218 223 221 215 213 219 222 224 226 227 228 233 237 236
178 174 158 170 187 182 181 176 183 169 186 186 189 187 188 202 219 219 214 208 215 212 211 219 222 225 198 200 214 219 223 232 232 225 217 220 223 227 229 231 233 238 239
211 178 187 168 181 182 179 183 179 190 190 199 248 208 195 227 192 196 210 219 212 212 229 209 216 231 235 216 205 210 220 228 235 238 235 221 220 227 231 235 236 237 239
215 199 173 188 183 184 182 185 195 197 201 188 209 249 269 268 249 193 207 207 223 212 215 232 207 221 231 234 236 226 199 209 221 232 241 248 240 234 235 240 243 245 244
211 229 171 185 185 191 195 190 205 205 216 194 202 235 237 245 244 254 250 210 204 215 213 202 219 225 265 250 255 245 203 208 212 222 231 243 250 256 261 259 248 249 245
180 205 191 194 187 177 224 225 211 211 225 231 204 214 229 239 242 249 249 250 213 216 212 207 207 218 204 220 236 243 191 192 201 215 229 237 247 254 256 260 265 265 266
193 201 199 195 194 196 221 228 215 219 227 227 241 224 223 228 240 247 249 259 258 215 219 229 220 220 217 222 234 221 172 192 203 213 221 231 242 252 256 261 268 271 272
197 196 199 196 198 196 225 225 217 218 215 227 237 236 240 228 238 243 243 251 257 244 225 233 213 219 221 219 224 193 179 190 203 210 219 225 233 241 248 257 264 270 273
199 195 197 201 204 201 214 216 220 219 219 228 233 234 229 238 239 241 241 223 238 245 240 226 229 207 218 208 164 190 210 175 181 187 198 218 227 241 247 252 260 272 280
201 198 201 202 205 207 219 221 222 224 221 223 231 231 231 235 241 239 234 219 221 225 245 237 221 209 199 202 176 190 199 159 174 191 205 205 219 242 259 272 275 279 285
200 198 200 206 208 211 219 226 228 225 225 228 232 233 239 240 239 241 225 226 217 223 237 229 251 172 195 198 168 202 190 214 209 195 199 204 209 243 269 273 274 279 282
202 209 203 207 211 214 219 221 220 220 223 232 234 232 236 238 243 233 215 211 210 198 208 232 185 190 201 200 188 197 215 220 242 187 175 198 212 249 260 262 269 273 278
207 205 212 208 210 213 216 220 222 226 230 235 236 238 239 236 230 205 207 207 206 218 209 214 199 177 191 185 168 191 215 238 247 158 181 207 217 230 249 255 257 259 267
211 211 212 215 219 219 223 226 230 233 235 236 239 239 232 218 215 216 211 211 200 201 198 204 191 186 167 167 182 196 210 214 224 235 223 240 212 227 229 235 244 249 251
211 214 214 216 219 221 223 225 229 234 236 240 236 227 227 219 211 220 221 219 204 208 195 193 183 172 179 171 195 179 210 221 243 244 258 261 243 239 247 235 250 244 248
214 213 216 217 219 222 217 208 218 223 223 229 235 236 234 229 228 215 213 201 197 193 196 190 184 187 186 182 170 191 187 209 236 236 239 258 262 273 279 273 269 280 286
211 217 219 218 221 222 202 191 194 215 221 222 223 217 206 207 185 142 100 87 70 62 124 142 145 104 157 176 129 163 163 220 251 268 281 270 278 276 280 274 270 266 268
212 212 216 219 222 225 188 197 193 217 229 226 205 188 166 140 141 134 115 97 79 61 35 15 75 101 93 66 85 182 253 272 277 275 264 262 263 269 280 286 281 283 278
208 212 215 217 223 225 163 183 180 128 101 78 75 90 118 112 123 129 118 114 98 75 73 76 61 58 61 58 33 261 193 231 249 264 267 276 273 278 297 295 273 238 296
204 168 88 58 58 86 94 138 130 125 114 103 84 79 94 108 101 99 104 102 96 115 97 107 75 90 127 99 27 313 265 255 266 283 11 289 291 313 288 275 291 315 292